星链-36127(STARLINK-36127)

导读

STARLINK-36127是美国星链项目的低轨互联网通信卫星,于2025年12月7日发射入轨,隶属于美国太空探索技术公司SpaceX部署的星链星座。星链星座旨在为全球提供高速低延迟互联网服务,这颗卫星补充了星座的覆盖容量,进一步完善了全球卫星互联网的组网布局。

基本信息
目录编号:
66935
目录名称:
STARLINK-36127
国际标识:
2025-286L
轨道中心:
EARTH
卫星名称:
星链-36127
卫星全名:
星链-36127(STARLINK-36127)
卫星状态:
在轨 (已飞行188 天)
发射日期:
2025-12-07 UTC
国别 :
美国 (US)
星等 :
--
轨道信息
数据来源 国际轨道数据 AOE轨道数据
星历时间 2026-06-11T22:58:10+0800
1天前
查看轨道信息
2026-06-07T07:00:00+0800
6天前
查看轨道信息
半长轴 6840.85km 6840.778km
偏心率 0.0001149 0.000154
轨道倾角 53.158° 53.160°
近地点辐角 103.412° 82.235°
升交点赤经 281.069° 302.878°
平近点角 256.701° 52.804°
近地点 461.926km 461.587km
远地点 463.5km 463.695km
周期 93.848分钟 93.846分钟
每日圈数 15.343969 15.34421
详细信息
固有亮度:
5
最大亮度:
2.5
卫星平台:
Starlink V1.0
覆盖范围:
全球
运营商:
太空探索技术公司
运营商所在国:
美国
制造商(研发单位):
太空探索技术公司
制造商所在国:
美国
使用方式:
暂无
卫星简介
Starlink 计划是 SpaceX 推出的全球卫星互联网项目,通过发射低轨道卫星,为全球尤其是偏远地区提供高速、低延迟的互联网服务。自 2019 年起,Starlink 已部署数千颗卫星,旨在缩小全球数字鸿沟,推动互联网普及。该项目还为军事、航空等行业提供通信支持,带来广泛经济效益。
2D轨道图
3D轨道图
轨道高度分析图
轨道倾角分析图
轨道综合分析图
查看轨道综合分析图